Arlington, TX

1:45 PM CDT on March 26, 2017 (GMT -0500)
Arlington Municipal

Weather History for KGKY - May, 2013

Change the Weather History Date:

Friday, May 24, 2013

  Actual Average (KRBD) Record (KRBD)
Temperature  
Mean Temperature 75 °F -  
Max Temperature 84 °F 83 °F 93 °F (2012)
Min Temperature 66 °F 64 °F 60 °F (2001)
Cooling Degree Days 10    
Growing Degree Days 25 (Base 50)    
Moisture  
Dew Point 68 °F    
Average Humidity 80    
Maximum Humidity 91    
Minimum Humidity 63    
Precipitation  
Precipitation 0.44 in - - ()
Sea Level Pressure  
Sea Level Pressure 30.09 in    
Wind  
Wind Speed 8 mph (SE)    
Max Wind Speed 18 mph    
Max Gust Speed 33 mph    
Visibility 9 miles    
Events Rain , Thunderstorm    
Averages and records for this station are not official NWS values.
T = Trace of Precipitation, MM = Missing Value Source: NWS Daily Summary

Daily Weather History Graph

Daily Weather History Graph

Search for Another Location

Airport or City:

Trip Planner

Search our weather history database for the weather conditions in past years. The results will help you decide how hot, cold, wet, or windy it might be!

Date:

Astronomy

May. 24, 2013 Rise Set
Actual Time 6:24 AM CDT 8:26 PM CDT
Civil Twilight 5:56 AM CDT 8:54 PM CDT
Nautical Twilight 5:23 AM CDT 9:27 PM CDT
Astronomical Twilight 4:47 AM CDT 10:04 PM CDT
Moon 8:11 PM CDT (5/24) 5:54 AM CDT (5/24)
Length of Visible Light 14h 57m
Length of Day
14h 02m
Full, 100% of the Moon is Illuminated
May 24
Full
May 24
Full
May 31
Last Quarter
Jun 8
New
Jun 16
First Quarter

Hourly Weather History & Observations

Time (CDT) Temp. Heat Index Dew Point Humidity Pressure Visibility Wind Dir Wind Speed Gust Speed Precip Events Conditions
12:53 AM 78.1 °F - 68.0 °F 71% 30.00 in 10.0 mi ESE 8.1 mph - N/A   Clear
1:53 AM 77.0 °F - 69.1 °F 76% 30.00 in 10.0 mi ESE 6.9 mph - N/A   Clear
2:53 AM 75.9 °F - 69.1 °F 79% 30.00 in 10.0 mi ESE 5.8 mph - N/A   Clear
3:53 AM 75.0 °F - 70.0 °F 84% 30.00 in 10.0 mi SE 4.6 mph - N/A   Clear
4:53 AM 73.9 °F - 70.0 °F 87% 30.01 in 10.0 mi East 5.8 mph - N/A   Clear
5:53 AM 73.0 °F - 70.0 °F 90% 30.02 in 8.0 mi SE 3.5 mph - N/A   Clear
6:53 AM 73.0 °F - 70.0 °F 90% 30.03 in 6.0 mi East 3.5 mph - N/A   Clear
7:53 AM 73.9 °F - 71.1 °F 91% 30.08 in 7.0 mi ESE 4.6 mph - N/A   Clear
8:53 AM 77.0 °F - 72.0 °F 84% 30.09 in 10.0 mi ESE 4.6 mph - N/A   Partly Cloudy
9:29 AM 78.8 °F - 71.6 °F 78% 30.13 in 10.0 mi SE 5.8 mph - N/A   Mostly Cloudy
9:44 AM 78.8 °F - 71.6 °F 78% 30.12 in 10.0 mi SE 6.9 mph - N/A   Mostly Cloudy
9:53 AM 79.0 °F - 72.0 °F 79% 30.10 in 10.0 mi SE 8.1 mph - N/A   Mostly Cloudy
10:23 AM 78.8 °F - 71.6 °F 78% 30.13 in 10.0 mi SE 9.2 mph - N/A   Mostly Cloudy
10:53 AM 79.0 °F - 71.1 °F 77% 30.12 in 10.0 mi SE 11.5 mph - N/A   Mostly Cloudy
11:53 AM 82.0 °F 85.5 °F 69.1 °F 65% 30.12 in 10.0 mi SE 11.5 mph - N/A   Partly Cloudy
12:38 PM 78.8 °F - 69.8 °F 74% 30.15 in 2.0 mi ESE 5.8 mph 19.6 mph 0.12 in Rain , Thunderstorm Heavy Thunderstorms and Rain
12:50 PM 78.8 °F - 71.6 °F 78% 30.14 in 10.0 mi ESE 8.1 mph - 0.12 in Thunderstorm Thunderstorm
12:53 PM 79.0 °F - 71.1 °F 77% 30.12 in 10.0 mi ESE 6.9 mph - 0.12 in Thunderstorm Thunderstorm
1:15 PM 80.6 °F 83.9 °F 69.8 °F 70% 30.13 in 10.0 mi SE 11.5 mph - N/A   Partly Cloudy
1:53 PM 81.0 °F 84.1 °F 69.1 °F 67% 30.09 in 10.0 mi ESE 11.5 mph - N/A   Mostly Cloudy
2:53 PM 82.0 °F 85.9 °F 70.0 °F 67% 30.07 in 10.0 mi East 10.4 mph - 0.00 in   Clear
3:53 PM 82.9 °F 86.5 °F 69.1 °F 63% 30.03 in 10.0 mi ESE 15.0 mph 20.7 mph 0.01 in   Clear
4:53 PM 82.0 °F 85.9 °F 70.0 °F 67% 30.04 in 10.0 mi ESE 11.5 mph - N/A   Clear
5:53 PM 81.0 °F 84.1 °F 69.1 °F 67% 30.04 in 10.0 mi ESE 10.4 mph - N/A   Clear
6:53 PM 79.0 °F - 70.0 °F 74% 30.05 in 10.0 mi SE 4.6 mph - N/A   Partly Cloudy
7:29 PM 73.4 °F - 62.6 °F 69% 30.11 in 10.0 mi SSW 12.7 mph 20.7 mph N/A Thunderstorm Mostly Cloudy
7:53 PM 69.1 °F - 64.9 °F 87% 30.12 in 3.0 mi SSW 13.8 mph 24.2 mph 0.14 in Rain , Thunderstorm Heavy Rain
8:00 PM 68.0 °F - 64.4 °F 88% 30.12 in 2.0 mi SW 13.8 mph 21.9 mph 0.10 in Rain , Thunderstorm Heavy Rain
8:04 PM 68.0 °F - 64.4 °F 88% 30.12 in 3.0 mi SSW 13.8 mph 23.0 mph 0.10 in Rain Rain
8:15 PM 68.0 °F - 64.4 °F 88% 30.10 in 10.0 mi SW 9.2 mph 23.0 mph 0.11 in Rain , Thunderstorm Light Rain
8:37 PM 68.0 °F - 64.4 °F 88% 30.11 in 10.0 mi SW 6.9 mph - 0.12 in   Mostly Cloudy
8:53 PM 68.0 °F - 64.9 °F 90% 30.11 in 9.0 mi SSW 3.5 mph - 0.13 in Rain , Thunderstorm Light Rain
9:06 PM 68.0 °F - 64.4 °F 88% 30.12 in 10.0 mi SSW 5.8 mph - 0.00 in Rain Light Rain
9:53 PM 68.0 °F - 64.9 °F 90% 30.10 in 10.0 mi Calm Calm - 0.02 in   Partly Cloudy
10:53 PM 68.0 °F - 64.0 °F 87% 30.16 in 10.0 mi SSE 18.4 mph 33.4 mph 0.00 in Rain Light Rain
11:53 PM 66.9 °F - 64.0 °F 90% 30.14 in 10.0 mi SSE 11.5 mph 20.7 mph 0.02 in Rain Light Rain